Estación de Río Negro
Ultimos registro cada 15 minutos 59
| N° | Estación | Fecha / Hora | Temperatura | Humedad | Lluvia | Velocidad | Dirección | Radiación | Presion |
| 59 | Río Negro | 06-05-2026 14:30 | 11,6 | 84,6 | 0 | 0,5 | 236 | 241,9 | 1004 |
| 58 | Río Negro | 06-05-2026 14:15 | 11,4 | 85,1 | 0 | 0,5 | 219 | 246,9 | 1003,9 |
| 57 | Río Negro | 06-05-2026 14:00 | 10,9 | 85 | 0 | 1 | 227 | 216,9 | 1003,7 |
| 56 | Río Negro | 06-05-2026 13:45 | 10,8 | 85,6 | 0 | 1 | 226 | 189,4 | 1003,4 |
| 55 | Río Negro | 06-05-2026 13:30 | 10,4 | 86,1 | 0 | 1 | 234 | 144,4 | 1003,6 |
| 54 | Río Negro | 06-05-2026 13:15 | 10,4 | 85,4 | 0 | 1,5 | 234 | 135,6 | 1003,4 |
| 53 | Río Negro | 06-05-2026 13:00 | 10,3 | 86,1 | 0 | 1,5 | 236 | 159,4 | 1003,4 |
| 52 | Río Negro | 06-05-2026 12:45 | 10,3 | 85,9 | 0 | 1,5 | 234 | 144,4 | 1003,2 |
| 51 | Río Negro | 06-05-2026 12:30 | 10,3 | 87,2 | 0 | 1,5 | 239 | 196,9 | 1002,9 |
| 50 | Río Negro | 06-05-2026 12:15 | 10,3 | 89,1 | 0 | 1,5 | 251 | 153,1 | 1003,1 |
| 49 | Río Negro | 06-05-2026 12:00 | 10,3 | 90,2 | 0 | 1 | 240 | 191,9 | 1002,8 |
| 48 | Río Negro | 06-05-2026 11:45 | 10,2 | 92,4 | 0 | 1 | 240 | 188,1 | 1002,5 |
| 47 | Río Negro | 06-05-2026 11:30 | 10,1 | 92,6 | 0 | 1,5 | 241 | 225,6 | 1002,3 |
| 46 | Río Negro | 06-05-2026 11:15 | 9,9 | 94,1 | 0 | 1 | 236 | 176,9 | 1002 |
| 45 | Río Negro | 06-05-2026 11:00 | 9,5 | 95,4 | 0 | 1 | 237 | 153,1 | 1001,8 |
| 44 | Río Negro | 06-05-2026 10:45 | 9,2 | 96,4 | 0 | 1 | 241 | 114,4 | 1001,6 |
| 43 | Río Negro | 06-05-2026 10:30 | 9,1 | 97,4 | 0 | 1 | 248 | 129,4 | 1001,6 |
| 42 | Río Negro | 06-05-2026 10:15 | 8,6 | 98,4 | 0 | 1 | 240 | 126,9 | 1001,3 |
| 41 | Río Negro | 06-05-2026 10:00 | 8,3 | 99,3 | 0 | 1 | 240 | 39,4 | 1001,3 |
| 40 | Río Negro | 06-05-2026 09:45 | 8,2 | 99,9 | 0 | 1 | 244 | 19,4 | 1001,4 |
| 39 | Río Negro | 06-05-2026 09:30 | 8,1 | 100 | 0 | 1 | 253 | 15,6 | 1001,2 |
| 38 | Río Negro | 06-05-2026 09:15 | 8 | 100 | 0 | 1 | 240 | 14,4 | 1000,9 |
| 37 | Río Negro | 06-05-2026 09:00 | 8 | 100 | 0 | 1 | 243 | 21,9 | 1000,5 |
| 36 | Río Negro | 06-05-2026 08:45 | 8 | 100 | 0 | 0,5 | 233 | 26,9 | 1000,3 |
| 35 | Río Negro | 06-05-2026 08:30 | 8 | 100 | 0 | 1 | 234 | 6,9 | 1000,2 |
| 34 | Río Negro | 06-05-2026 08:15 | 8,2 | 100 | 0 | 1 | 233 | 3,1 | 999,8 |
| 33 | Río Negro | 06-05-2026 08:00 | 8,2 | 100 | 0,2 | 0,5 | 236 | 0,6 | 999,8 |
| 32 | Río Negro | 06-05-2026 07:45 | 8,3 | 100 | 0 | 1 | 239 | 0,6 | 999,8 |
| 31 | Río Negro | 06-05-2026 07:30 | 8,3 | 100 | 0,2 | 1 | 241 | 0,6 | 999,5 |
| 30 | Río Negro | 06-05-2026 07:15 | 8,3 | 100 | 0,6 | 1 | 237 | 0,6 | 999,4 |
| 29 | Río Negro | 06-05-2026 07:00 | 8,3 | 100 | 0,8 | 0,5 | 237 | 0,6 | 999,4 |
| 28 | Río Negro | 06-05-2026 06:45 | 8,3 | 100 | 0,6 | 0,5 | 240 | 0,6 | 999,4 |
| 27 | Río Negro | 06-05-2026 06:30 | 8,4 | 100 | 0,4 | 0 | 243 | 0,6 | 999,4 |
| 26 | Río Negro | 06-05-2026 06:15 | 8,5 | 100 | 0,4 | 0 | 241 | 0,6 | 999,4 |
| 25 | Río Negro | 06-05-2026 06:00 | 8,6 | 100 | 0,4 | 0,5 | 241 | 0,6 | 999,4 |
| 24 | Río Negro | 06-05-2026 05:45 | 8,6 | 100 | 0,4 | 0 | 236 | 0,6 | 999,2 |
| 23 | Río Negro | 06-05-2026 05:30 | 8,7 | 100 | 0,6 | 0,5 | 244 | 0,6 | 998,9 |
| 22 | Río Negro | 06-05-2026 05:15 | 8,8 | 100 | 0,6 | 0,5 | 256 | 0,6 | 999,1 |
| 21 | Río Negro | 06-05-2026 05:00 | 9 | 100 | 0,6 | 0 | 240 | 0,6 | 999 |
| 20 | Río Negro | 06-05-2026 04:45 | 9 | 100 | 0,4 | 0,5 | 240 | 0,6 | 998,8 |
| 19 | Río Negro | 06-05-2026 04:30 | 9 | 100 | 0,2 | 0 | 239 | 0,6 | 998,7 |
| 18 | Río Negro | 06-05-2026 04:15 | 9 | 100 | 0,2 | 0 | 256 | 0,6 | 998,6 |
| 17 | Río Negro | 06-05-2026 04:00 | 9 | 100 | 0,2 | 0 | 229 | 0,6 | 998,6 |
| 16 | Río Negro | 06-05-2026 03:45 | 9 | 100 | 0,8 | 0,5 | 240 | 0,6 | 998,7 |
| 15 | Río Negro | 06-05-2026 03:30 | 9 | 100 | 1 | 0 | 226 | 0,6 | 998,8 |
| 14 | Río Negro | 06-05-2026 03:15 | 8,9 | 100 | 0,4 | 0 | 260 | 0,6 | 999,1 |
| 13 | Río Negro | 06-05-2026 03:00 | 8,9 | 100 | 0,6 | 0 | 243 | 0,6 | 998,9 |
| 12 | Río Negro | 06-05-2026 02:45 | 8,9 | 100 | 1,4 | 0 | 237 | 0,6 | 998,9 |
| 11 | Río Negro | 06-05-2026 02:30 | 9 | 100 | 0,4 | 0,5 | 244 | 0,6 | 999 |
| 10 | Río Negro | 06-05-2026 02:15 | 9 | 100 | 0,8 | 0 | 232 | 0,6 | 998,9 |
| 9 | Río Negro | 06-05-2026 02:00 | 9,1 | 100 | 0,4 | 0 | 234 | 0,6 | 999 |
| 8 | Río Negro | 06-05-2026 01:45 | 9,2 | 100 | 0,2 | 0,5 | 250 | 0,6 | 999,2 |
| 7 | Río Negro | 06-05-2026 01:30 | 9,3 | 100 | 0,6 | 0 | 244 | 0,6 | 999,2 |
| 6 | Río Negro | 06-05-2026 01:15 | 9,4 | 100 | 0,4 | 0 | 239 | 0,6 | 999,1 |
| 5 | Río Negro | 06-05-2026 01:00 | 9,4 | 100 | 0,2 | 0,5 | 239 | 0,6 | 999,2 |
| 4 | Río Negro | 06-05-2026 00:45 | 9,5 | 100 | 0,4 | 0,5 | 248 | 0,6 | 999 |
| 3 | Río Negro | 06-05-2026 00:30 | 9,7 | 100 | 0,2 | 0,5 | 254 | 0,6 | 998,9 |
| 2 | Río Negro | 06-05-2026 00:15 | 9,9 | 100 | 0,4 | 0 | 241 | 0,6 | 998,9 |
| 1 | Río Negro | 06-05-2026 00:00 | 10,1 | 100 | 0,2 | 0 | 243 | 0,6 | 999 |